Location: Calvatone
(45.1167°N, 10.4333°E)
Time: 09:12:25
(UTC+00:00)

METEOR M2 - Pass Details

Date: 08 December 2023
Orbit: 818 x 826 km, 98.4° (Epoch: 24 February)

Event Time Altitude Azimuth Distance (km) Brightness Sun altitude
Rises 05:37:39 0° 10° (N) 3,370 ? -11.2°
Reaches altitude 10° 05:40:02 10° 8° (N) 2,432 ? -10.8°
Maximum altitude 05:45:20 63° 288° (WNW) 917 ? -10.0°
Drops below altitude 10° 05:50:36 10° 209° (SSW) 2,410 ? -9.1°
Sets 05:52:57 0° 206° (SSW) 3,338 ? -8.7°
